Huntingburg, IN

7:07 PM EDT on March 27, 2017 (GMT -0400)
Huntingburg

Weather History for KHNB - January, 2013

Change the Weather History Date:

Wednesday, January 30, 2013

  Actual Average Record
Temperature  
Mean Temperature 50 °F -  
Max Temperature 66 °F 40 °F 66 °F (2013)
Min Temperature 30 °F 25 °F 1 °F (2004)
Degree Days  
Heating Degree Days 15    
Moisture  
Dew Point 41 °F    
Average Humidity 79    
Maximum Humidity 94    
Minimum Humidity 64    
Precipitation  
Precipitation 0.96 in - - ()
Sea Level Pressure  
Sea Level Pressure 29.52 in    
Wind  
Wind Speed 17 mph (WSW)    
Max Wind Speed 30 mph    
Max Gust Speed 41 mph    
Visibility 10 miles    
Events Thunderstorm    
Averages and records for this station are not official NWS values.
T = Trace of Precipitation, MM = Missing Value Source: NWS Daily Summary

Daily Weather History Graph

Daily Weather History Graph

Search for Another Location

Airport or City:

Trip Planner

Search our weather history database for the weather conditions in past years. The results will help you decide how hot, cold, wet, or windy it might be!

Date:

Astronomy

Jan. 30, 2013 Rise Set
Actual Time 7:54 AM EST 6:08 PM EST
Civil Twilight 7:26 AM EST 6:36 PM EST
Nautical Twilight 6:54 AM EST 7:08 PM EST
Astronomical Twilight 6:23 AM EST 7:39 PM EST
Moon 10:02 PM EST (1/30) 9:25 AM EST (1/30)
Length of Visible Light 11h 10m
Length of Day
10h 14m
Waning Gibbous, 88% of the Moon is Illuminated
Jan 30
Waning Gibbous
Feb 3
Last Quarter
Feb 10
New
Feb 17
First Quarter
Feb 25
Full

Hourly Weather History & Observations

Time (EST) Temp. Windchill Dew Point Humidity Pressure Visibility Wind Dir Wind Speed Gust Speed Precip Events Conditions
12:15 AM 66.2 °F - 60.8 °F 83% 29.48 in 10.0 mi South 25.3 mph 33.4 mph N/A   Mostly Cloudy
12:35 AM 68.0 °F - 60.8 °F 78% 29.47 in 10.0 mi South 24.2 mph 36.8 mph N/A   Mostly Cloudy
1:35 AM 66.2 °F - 59.0 °F 78% 29.50 in 10.0 mi West 16.1 mph 27.6 mph N/A   Overcast
1:55 AM 53.6 °F - 51.8 °F 94% 29.53 in 5.0 mi NW 10.4 mph 31.1 mph 0.28 in   Overcast
2:15 AM 53.6 °F - 48.2 °F 82% 29.50 in 8.0 mi NNW 13.8 mph 21.9 mph 0.20 in Thunderstorm Overcast
2:35 AM 53.6 °F - 48.2 °F 82% 29.51 in 10.0 mi NNW 13.8 mph 18.4 mph 0.29 in   Overcast
2:55 AM 51.8 °F - 48.2 °F 88% 29.50 in 10.0 mi NNW 10.4 mph - 0.38 in   Overcast
3:15 AM 51.8 °F - 48.2 °F 88% 29.49 in 10.0 mi NNW 8.1 mph 16.1 mph 0.08 in   Overcast
3:35 AM 51.8 °F - 48.2 °F 88% 29.51 in 10.0 mi NNE 4.6 mph - 0.17 in   Overcast
4:35 AM 51.8 °F - 48.2 °F 88% 29.51 in 10.0 mi Calm Calm - N/A   Overcast
4:55 AM 51.8 °F - 48.2 °F 88% 29.51 in 10.0 mi ESE 5.8 mph - N/A   Mostly Cloudy
5:15 AM 51.8 °F - 48.2 °F 88% 29.48 in 9.0 mi East 6.9 mph - N/A   Overcast
5:55 AM 51.8 °F - 48.2 °F 88% 29.47 in 9.0 mi SE 4.6 mph - 0.06 in   Mostly Cloudy
6:15 AM 51.8 °F - 48.2 °F 88% 29.46 in 7.0 mi Calm Calm - 0.02 in   Overcast
6:35 AM 51.8 °F - 48.2 °F 88% 29.47 in 10.0 mi South 5.8 mph - 0.04 in   Mostly Cloudy
6:55 AM 51.8 °F - 48.2 °F 88% 29.45 in 9.0 mi SE 9.2 mph - 0.05 in   Scattered Clouds
7:15 AM 51.8 °F - 48.2 °F 88% 29.44 in 10.0 mi SE 17.3 mph 23.0 mph N/A   Partly Cloudy
7:35 AM 51.8 °F - 48.2 °F 88% 29.42 in 10.0 mi SE 18.4 mph 24.2 mph N/A   Clear
7:55 AM 51.8 °F - 48.2 °F 88% 29.44 in 10.0 mi South 10.4 mph 16.1 mph N/A   Partly Cloudy
8:15 AM 51.8 °F - 48.2 °F 88% 29.45 in 10.0 mi South 13.8 mph 18.4 mph N/A   Partly Cloudy
8:35 AM 51.8 °F - 48.2 °F 88% 29.46 in 10.0 mi South 15.0 mph - N/A   Scattered Clouds
8:55 AM 51.8 °F - 48.2 °F 88% 29.43 in 10.0 mi South 10.4 mph 17.3 mph N/A   Mostly Cloudy
9:15 AM 51.8 °F - 48.2 °F 88% 29.48 in 10.0 mi SSW 13.8 mph 19.6 mph N/A   Mostly Cloudy
9:35 AM 51.8 °F - 48.2 °F 88% 29.46 in 10.0 mi South 11.5 mph - N/A   Mostly Cloudy
9:55 AM 51.8 °F - 48.2 °F 88% 29.46 in 10.0 mi South 11.5 mph - N/A   Overcast
10:15 AM 53.6 °F - 48.2 °F 82% 29.46 in 10.0 mi South 12.7 mph 21.9 mph N/A   Overcast
10:35 AM 53.6 °F - 48.2 °F 82% 29.46 in 10.0 mi South 16.1 mph 20.7 mph N/A   Mostly Cloudy
10:55 AM 53.6 °F - 48.2 °F 82% 29.44 in 10.0 mi South 16.1 mph - N/A   Mostly Cloudy
11:15 AM 55.4 °F - 50.0 °F 82% 29.44 in 10.0 mi South 17.3 mph 23.0 mph N/A   Overcast
11:35 AM 55.4 °F - 48.2 °F 77% 29.43 in 10.0 mi SSW 23.0 mph 28.8 mph N/A   Overcast
11:55 AM 55.4 °F - 48.2 °F 77% 29.45 in 10.0 mi SSW 20.7 mph 25.3 mph N/A   Overcast
12:15 PM 55.4 °F - 48.2 °F 77% 29.44 in 10.0 mi SSW 18.4 mph 24.2 mph N/A   Overcast
12:35 PM 55.4 °F - 48.2 °F 77% 29.42 in 10.0 mi SSW 11.5 mph - N/A   Overcast
1:15 PM 55.4 °F - 48.2 °F 77% 29.39 in 10.0 mi SSW 18.4 mph 24.2 mph N/A   Overcast
1:35 PM 57.2 °F - 48.2 °F 72% 29.38 in 10.0 mi SSW 16.1 mph 21.9 mph N/A   Overcast
2:16 PM 55.4 °F - 46.4 °F 72% 29.38 in 10.0 mi SW 17.3 mph 28.8 mph N/A   Mostly Cloudy
2:35 PM 55.4 °F - 46.4 °F 72% 29.36 in 10.0 mi SW 17.3 mph 27.6 mph N/A   Mostly Cloudy
2:55 PM 55.4 °F - 44.6 °F 67% 29.37 in 10.0 mi SW 21.9 mph 27.6 mph N/A   Mostly Cloudy
3:15 PM 48.2 °F - 42.8 °F 82% 29.40 in 5.0 mi WNW 25.3 mph 41.4 mph N/A   Mostly Cloudy
3:35 PM 44.6 °F 36.4 °F 41.0 °F 87% 29.41 in 8.0 mi WNW 20.7 mph 28.8 mph N/A   Mostly Cloudy
3:55 PM 44.6 °F 36.6 °F 39.2 °F 81% 29.42 in 10.0 mi WNW 19.6 mph 25.3 mph 0.01 in   Overcast
4:35 PM 42.8 °F 34.5 °F 37.4 °F 81% 29.45 in 8.0 mi West 18.4 mph 26.5 mph 0.01 in   Mostly Cloudy
4:55 PM 42.8 °F 33.8 °F 37.4 °F 81% 29.46 in 10.0 mi WNW 21.9 mph 36.8 mph 0.01 in   Overcast
5:15 PM 42.8 °F 34.3 °F 35.6 °F 76% 29.48 in 10.0 mi West 19.6 mph 29.9 mph N/A   Overcast
5:35 PM 41.0 °F 33.1 °F 35.6 °F 81% 29.50 in 9.0 mi West 15.0 mph - N/A   Overcast
5:55 PM 39.2 °F 27.4 °F 33.8 °F 81% 29.53 in 5.0 mi WNW 29.9 mph 41.4 mph N/A   Overcast
6:15 PM 37.4 °F 25.4 °F 32.0 °F 81% 29.53 in 10.0 mi WNW 27.6 mph 34.5 mph N/A   Overcast
6:55 PM 37.4 °F 26.4 °F 28.4 °F 70% 29.57 in 10.0 mi WNW 23.0 mph 38.0 mph N/A   Overcast
7:15 PM 35.6 °F 24.2 °F 26.6 °F 70% 29.60 in 10.0 mi WNW 21.9 mph 29.9 mph N/A   Overcast
7:35 PM 35.6 °F 23.2 °F 26.6 °F 70% 29.61 in 10.0 mi West 26.5 mph 36.8 mph N/A   Overcast
7:55 PM 35.6 °F 23.7 °F 26.6 °F 70% 29.62 in 10.0 mi WNW 24.2 mph 34.5 mph N/A   Overcast
8:15 PM 33.8 °F 20.5 °F 24.8 °F 70% 29.63 in 10.0 mi WNW 27.6 mph 33.4 mph N/A   Overcast
8:35 PM 33.8 °F 20.5 °F 26.6 °F 75% 29.65 in 10.0 mi WNW 27.6 mph 34.5 mph N/A   Overcast
8:55 PM 33.8 °F 20.5 °F 24.8 °F 70% 29.67 in 10.0 mi WNW 27.6 mph 35.7 mph N/A   Overcast
9:15 PM 33.8 °F 20.5 °F 24.8 °F 70% 29.69 in 10.0 mi West 27.6 mph 34.5 mph N/A   Overcast
9:35 PM 33.8 °F 22.8 °F 23.0 °F 65% 29.70 in 10.0 mi WNW 18.4 mph 29.9 mph N/A   Overcast
9:55 PM 33.8 °F 20.8 °F 24.8 °F 70% 29.72 in 10.0 mi West 26.5 mph 34.5 mph N/A   Overcast
10:15 PM 33.8 °F 20.8 °F 24.8 °F 70% 29.74 in 10.0 mi West 26.5 mph 32.2 mph N/A   Overcast
10:35 PM 32.0 °F 19.5 °F 23.0 °F 69% 29.75 in 10.0 mi West 21.9 mph 31.1 mph N/A   Overcast
10:55 PM 32.0 °F 19.2 °F 23.0 °F 69% 29.76 in 10.0 mi West 23.0 mph - N/A   Overcast
11:15 PM 32.0 °F 18.9 °F 23.0 °F 69% 29.78 in 10.0 mi West 24.2 mph 34.5 mph N/A   Overcast
11:35 PM 32.0 °F 17.9 °F 21.2 °F 64% 29.80 in 10.0 mi West 28.8 mph 38.0 mph N/A   Overcast
11:55 PM 30.2 °F 16.5 °F 19.4 °F 64% 29.81 in 10.0 mi West 24.2 mph 35.7 mph N/A   Overcast